C/2015 V2 ( Johnson )

Japanese version
Home page
Updated on May 21, 2018

---------------------------------------------------------------------

* Profile

Discovery Date November 3, 2015
Magnitude 17.1 mag
Discoverer J. A. Johnson (Catalina Sky Survey)

* Pictures

* Orbital Elements

Epoch 2017 June 16.0 TT = JDT 2457920.5
T 2017 June 12.33930 TT                                 MPCW
q   1.6369851            (2000.0)            P               Q
z  -0.0010486      Peri.  164.89538     -0.49024377     +0.49432026
                   Node    69.84900     -0.85774614     -0.12744030
e   1.0017166      Incl.   49.87641     -0.15470164     -0.85988746
From 5819 observations 2015 Jan. 11-2018 Mar. 4, mean residual 0".7.
     Nongravitational parameters A1 = +2.55, A2 = -0.5948.

* Finding Charts

* Magnitudes Graph

        m1 = 6.0 + 5 log d + 9.0 log r

---------------------------------------------------------------------

The orbital elements are published on M.P.E.C. 2018-F152.
The charts are made with StellaNavigator Ver.8 (AstroArts).
The magnitudes graphs are made with Comet for Windows.

---------------------------------------------------------------------

Copyright(C) Seiichi Yoshida (comet@aerith.net). All rights reserved.